| time (UTC) | temp C | wind direction | speed KPH | gust KPH | rain 1hr cm | rain 24hr cm | rain mn cm | humidity % | barometer mb |
| 20260506201513 | 19 | 252 | 1.6 | 6.4 | 0.00 | 0.23 | 0.23 | 84 | 1007.9 |
| 20260506200012 | 18 | 85 | 0.0 | 4.8 | 0.00 | 0.23 | 0.23 | 85 | 1008.0 |
| 20260506194509 | 18 | 107 | 0.0 | 8.0 | 0.00 | 0.23 | 0.23 | 86 | 1008.2 |
| 20260506193007 | 17 | 79 | 1.6 | 8.0 | 0.00 | 0.23 | 0.23 | 88 | 1008.3 |
| 20260506191505 | 17 | 77 | 0.0 | 6.4 | 0.00 | 0.23 | 0.23 | 89 | 1008.5 |
| 20260506190004 | 17 | 46 | 0.0 | 4.8 | 0.00 | 0.23 | 0.23 | 90 | 1008.7 |
| 20260506184515 | 16 | 277 | 1.6 | 6.4 | 0.00 | 0.23 | 0.23 | 90 | 1008.7 |
| 20260506183108 | 16 | 287 | 0.0 | 6.4 | 0.00 | 0.23 | 0.23 | 90 | 1008.9 |
| 20260506183002 | 16 | 287 | 0.0 | 6.4 | 0.00 | 0.23 | 0.23 | 90 | 1009.0 |
| 20260506181559 | 16 | 24 | 0.0 | 6.4 | 0.00 | 0.23 | 0.23 | 91 | 1009.0 |
| 20260506180101 | 16 | 257 | 0.0 | 4.8 | 0.00 | 0.23 | 0.23 | 90 | 1009.0 |
| 20260506174607 | 16 | 26 | 0.0 | 8.0 | 0.00 | 0.23 | 0.23 | 90 | 1009.1 |
| 20260506173127 | 16 | 59 | 1.6 | 6.4 | 0.00 | 0.23 | 0.23 | 90 | 1009.1 |
| 20260506171600 | 16 | 76 | 0.0 | 6.4 | 0.00 | 0.23 | 0.23 | 91 | 1009.1 |
| 20260506170057 | 16 | 78 | 1.6 | 8.0 | 0.03 | 0.23 | 0.23 | 91 | 1009.2 |
| 20260506164557 | 16 | 85 | 1.6 | 9.7 | 0.08 | 0.23 | 0.23 | 92 | 1009.2 |
| 20260506163056 | 16 | 84 | 1.6 | 6.4 | 0.10 | 0.23 | 0.23 | 93 | 1009.2 |
| 20260506161608 | 16 | 107 | 0.0 | 6.4 | 0.10 | 0.23 | 0.23 | 92 | 1009.2 |
| 20260506160054 | 16 | 96 | 1.6 | 6.4 | 0.10 | 0.20 | 0.20 | 92 | 1010.1 |
| 20260506154551 | 16 | 86 | 0.0 | 4.8 | 0.08 | 0.15 | 0.15 | 91 | 1010.5 |
| 20260506153050 | 16 | 45 | 0.0 | 3.2 | 0.08 | 0.13 | 0.13 | 89 | 1010.6 |
| 20260506151547 | 16 | 85 | 0.0 | 3.2 | 0.13 | 0.13 | 0.13 | 88 | 1010.4 |
| 20260506150055 | 17 | 84 | 1.6 | 3.2 | 0.10 | 0.10 | 0.10 | 87 | 1010.4 |
| 20260506144559 | 17 | 95 | 0.0 | 3.2 | 0.08 | 0.08 | 0.08 | 86 | 1010.5 |
| 20260506143050 | 17 | 39 | 0.0 | 3.2 | 0.05 | 0.05 | 0.05 | 83 | 1010.3 |
| 20260506141537 | 18 | 355 | 0.0 | 6.4 | 0.00 | 0.00 | 0.00 | 80 | 1010.5 |
| 20260506140053 | 18 | 321 | 0.0 | 8.0 | 0.00 | 0.00 | 0.00 | 78 | 1010.3 |
| 20260506134536 | 18 | 59 | 0.0 | 6.4 | 0.00 | 0.00 | 0.00 | 77 | 1010.2 |
| 20260506133034 | 18 | 45 | 0.0 | 4.8 | 0.00 | 0.00 | 0.00 | 77 | 1010.2 |
| 20260506131541 | 18 | 65 | 0.0 | 6.4 | 0.00 | 0.00 | 0.00 | 76 | 1010.5 |
| 20260506130030 | 18 | 109 | 1.6 | 6.4 | 0.00 | 0.00 | 0.00 | 74 | 1010.4 |
| 20260506124529 | 19 | 63 | 1.6 | 9.7 | 0.00 | 0.00 | 0.00 | 72 | 1010.6 |
| 20260506123037 | 18 | 303 | 1.6 | 12.9 | 0.00 | 0.00 | 0.00 | 73 | 1010.2 |
| 20260506121529 | 18 | 129 | 3.2 | 17.7 | 0.00 | 0.00 | 0.00 | 72 | 1010.2 |
| 20260506120032 | 18 | 19 | 0.0 | 6.4 | 0.00 | 0.00 | 0.00 | 73 | 1010.0 |
| 20260506114527 | 18 | 184 | 3.2 | 11.3 | 0.00 | 0.00 | 0.00 | 73 | 1009.9 |
| 20260506113033 | 18 | 47 | 1.6 | 6.4 | 0.00 | 0.00 | 0.00 | 73 | 1009.9 |
| 20260506111526 | 18 | 88 | 1.6 | 12.9 | 0.00 | 0.00 | 0.00 | 73 | 1009.8 |
| 20260506110037 | 18 | 313 | 1.6 | 6.4 | 0.00 | 0.00 | 0.00 | 72 | 1009.8 |
| 20260506104527 | 18 | 25 | 1.6 | 14.5 | 0.00 | 0.00 | 0.00 | 72 | 1009.7 |
| 20260506103025 | 18 | 79 | 1.6 | 8.0 | 0.00 | 0.00 | 0.00 | 71 | 1009.7 |
| 20260506101522 | 18 | 78 | 1.6 | 8.0 | 0.00 | 0.00 | 0.00 | 71 | 1009.5 |
| 20260506100022 | 18 | 157 | 1.6 | 6.4 | 0.00 | 0.00 | 0.00 | 71 | 1009.5 |
| 20260506094521 | 18 | 89 | 0.0 | 9.7 | 0.00 | 0.00 | 0.00 | 71 | 1009.7 |
| 20260506093029 | 19 | 122 | 1.6 | 4.8 | 0.00 | 0.00 | 0.00 | 71 | 1009.7 |
| 20260506091519 | 19 | 55 | 1.6 | 8.0 | 0.00 | 0.00 | 0.00 | 70 | 1009.5 |
| 20260506090016 | 19 | 251 | 0.0 | 14.5 | 0.00 | 0.00 | 0.00 | 70 | 1009.7 |
| 20260506084516 | 19 | 71 | 0.0 | 9.7 | 0.00 | 0.00 | 0.00 | 71 | 1009.7 |
| 20260506083017 | 19 | 15 | 0.0 | 4.8 | 0.00 | 0.00 | 0.00 | 71 | 1009.7 |
| 20260506081515 | 19 | 119 | 1.6 | 9.7 | 0.00 | 0.00 | 0.00 | 70 | 1009.8 |
| 20260506073010 | 19 | 284 | 1.6 | 4.8 | 0.00 | 0.00 | 0.00 | 68 | 1009.9 |
| 20260506071507 | 20 | 114 | 1.6 | 6.4 | 0.00 | 0.00 | 0.00 | 68 | 1010.0 |
| 20260506061503 | 20 | 74 | 0.0 | 4.8 | 0.00 | 0.00 | 0.00 | 65 | 1010.3 |
| 20260506044555 | 20 | 68 | 0.0 | 6.4 | 0.00 | 0.00 | 0.00 | 61 | 1011.0 |
| 20260506043056 | 20 | 52 | 0.0 | 3.2 | 0.00 | 0.00 | 0.00 | 61 | 1011.0 |
| 20260506041551 | 20 | 74 | 0.0 | 4.8 | 0.00 | 0.00 | 0.00 | 60 | 1011.1 |
| 20260506040047 | 20 | 53 | 0.0 | 4.8 | 0.00 | 0.00 | 0.00 | 58 | 1010.9 |
| 20260506034604 | 21 | 69 | 1.6 | 4.8 | 0.00 | 0.00 | 0.00 | 57 | 1010.8 |
| 20260506033043 | 21 | 83 | 0.0 | 6.4 | 0.00 | 0.00 | 0.00 | 56 | 1010.8 |
| 20260506031549 | 21 | 70 | 0.0 | 6.4 | 0.00 | 0.00 | 0.00 | 54 | 1010.8 |
| 20260506030038 | 21 | 86 | 1.6 | 4.8 | 0.00 | 0.00 | 0.00 | 53 | 1010.7 |
| 20260506024541 | 22 | 71 | 0.0 | 6.4 | 0.00 | 0.00 | 0.00 | 52 | 1010.8 |
| 20260506023035 | 22 | 82 | 0.0 | 4.8 | 0.00 | 0.00 | 0.00 | 50 | 1010.9 |
| 20260506021531 | 22 | 133 | 0.0 | 4.8 | 0.00 | 0.00 | 0.00 | 49 | 1010.8 |
| 20260506020033 | 22 | 113 | 1.6 | 9.7 | 0.00 | 0.00 | 0.00 | 47 | 1010.7 |
| 20260506014526 | 23 | 68 | 0.0 | 4.8 | 0.00 | 0.00 | 0.00 | 46 | 1010.6 |
| 20260506013024 | 23 | 109 | 1.6 | 8.0 | 0.00 | 0.00 | 0.00 | 45 | 1010.4 |
| 20260506011521 | 23 | 86 | 1.6 | 6.4 | 0.00 | 0.00 | 0.00 | 44 | 1010.2 |
| 20260506010045 | 23 | 76 | 1.6 | 9.7 | 0.00 | 0.00 | 0.00 | 43 | 1010.1 |
| 20260506004521 | 24 | 266 | 0.0 | 4.8 | 0.00 | 0.00 | 0.00 | 42 | 1010.0 |
| 20260506003015 | 24 | 93 | 1.6 | 4.8 | 0.00 | 0.00 | 0.00 | 42 | 1009.9 |
| 20260506001513 | 25 | 65 | 0.0 | 4.8 | 0.00 | 0.00 | 0.00 | 39 | 1009.6 |
| 20260506000014 | 25 | 84 | 0.0 | 11.3 | 0.00 | 0.00 | 0.00 | 39 | 1009.5 |
| 20260505234510 | 25 | 98 | 0.0 | 6.4 | 0.00 | 0.00 | 0.00 | 38 | 1009.3 |
| 20260505233008 | 25 | 99 | 0.0 | 12.9 | 0.00 | 0.00 | 0.00 | 38 | 1009.2 |
| 20260505231509 | 26 | 63 | 1.6 | 8.0 | 0.00 | 0.00 | 0.00 | 37 | 1009.3 |
| 20260505230003 | 26 | 76 | 1.6 | 11.3 | 0.00 | 0.00 | 0.00 | 37 | 1009.1 |
| 20260505224601 | 26 | 31 | 1.6 | 12.9 | 0.00 | 0.00 | 0.00 | 36 | 1009.1 |
| 20260505223057 | 27 | 42 | 1.6 | 9.7 | 0.00 | 0.00 | 0.00 | 35 | 1009.1 |
| 20260505221552 | 27 | 66 | 1.6 | 8.0 | 0.00 | 0.00 | 0.00 | 34 | 1009.1 |
| 20260505220048 | 28 | 103 | 1.6 | 9.7 | 0.00 | 0.00 | 0.00 | 32 | 1009.0 |
| 20260505214546 | 28 | 82 | 0.0 | 8.0 | 0.00 | 0.00 | 0.00 | 34 | 1008.8 |